Brownwood, TX

7:58 AM CDT on March 27, 2017 (GMT -0500)
Brownwood Regional

Weather History for KBWD - March, 2013

Change the Weather History Date:

Monday, March 4, 2013

  Actual Average (KABI) Record (KABI)
Temperature  
Mean Temperature 66 °F -  
Max Temperature 84 °F 61 °F 89 °F (1955)
Min Temperature 48 °F 38 °F 16 °F (1917)
Cooling Degree Days 1    
Growing Degree Days 16 (Base 50)    
Moisture  
Dew Point 24 °F    
Average Humidity 22    
Maximum Humidity 62    
Minimum Humidity 7    
Precipitation  
Precipitation 0.00 in - - ()
Sea Level Pressure  
Sea Level Pressure 29.75 in    
Wind  
Wind Speed 10 mph (SSW)    
Max Wind Speed 26 mph    
Max Gust Speed 37 mph    
Visibility 10 miles    
Events      
Averages and records for this station are not official NWS values.
T = Trace of Precipitation, MM = Missing Value Source: NWS Daily Summary

Daily Weather History Graph

Daily Weather History Graph

Search for Another Location

Airport or City:

Trip Planner

Search our weather history database for the weather conditions in past years. The results will help you decide how hot, cold, wet, or windy it might be!

Date:

Astronomy

Mar. 04, 2013 Rise Set
Actual Time 6:59 AM CST 6:36 PM CST
Civil Twilight 6:34 AM CST 7:00 PM CST
Nautical Twilight 6:06 AM CST 7:28 PM CST
Astronomical Twilight 5:38 AM CST 7:57 PM CST
Moon 12:55 AM CST (3/4) 11:34 AM CST (3/4)
Length of Visible Light 12h 25m
Length of Day
11h 37m
Waning Gibbous, 52% of the Moon is Illuminated
Mar 4
Waning Gibbous
Mar 4
Last Quarter
Mar 11
New
Mar 19
First Quarter
Mar 27
Full

Hourly Weather History & Observations

Time (CST) Temp. Dew Point Humidity Pressure Visibility Wind Dir Wind Speed Gust Speed Precip Events Conditions
12:15 AM 64.4 °F 24.8 °F 22% 29.80 in 10.0 mi South 12.7 mph - N/A   Clear
12:55 AM 64.4 °F 23.0 °F 21% 29.79 in 10.0 mi South 10.4 mph 20.7 mph N/A   Clear
1:15 AM 64.4 °F 24.8 °F 22% 29.79 in 10.0 mi South 11.5 mph 17.3 mph N/A   Clear
1:35 AM 62.6 °F 24.8 °F 24% 29.79 in 10.0 mi South 10.4 mph - N/A   Partly Cloudy
1:55 AM 60.8 °F 24.8 °F 25% 29.78 in 10.0 mi South 9.2 mph - N/A   Mostly Cloudy
2:15 AM 59.0 °F 24.8 °F 27% 29.79 in 10.0 mi SSE 6.9 mph - N/A   Mostly Cloudy
2:35 AM 57.2 °F 26.6 °F 31% 29.78 in 10.0 mi South 6.9 mph - N/A   Mostly Cloudy
2:55 AM 59.0 °F 26.6 °F 29% 29.77 in 10.0 mi SSE 6.9 mph - N/A   Scattered Clouds
3:15 AM 57.2 °F 26.6 °F 31% 29.77 in 10.0 mi South 5.8 mph - N/A   Partly Cloudy
3:35 AM 55.4 °F 26.6 °F 33% 29.77 in 10.0 mi SSE 8.1 mph - N/A   Partly Cloudy
3:55 AM 57.2 °F 28.4 °F 33% 29.77 in 10.0 mi South 11.5 mph - N/A   Partly Cloudy
4:15 AM 59.0 °F 28.4 °F 31% 29.77 in 10.0 mi South 10.4 mph - N/A   Clear
4:35 AM 59.0 °F 32.0 °F 36% 29.77 in 10.0 mi South 8.1 mph - N/A   Clear
4:55 AM 57.2 °F 32.0 °F 38% 29.78 in 10.0 mi South 4.6 mph - N/A   Scattered Clouds
5:15 AM 55.4 °F 32.0 °F 41% 29.78 in 10.0 mi South 5.8 mph - N/A   Mostly Cloudy
5:35 AM 55.4 °F 32.0 °F 41% 29.78 in 10.0 mi SSE 5.8 mph - N/A   Mostly Cloudy
5:55 AM 53.6 °F 32.0 °F 44% 29.78 in 10.0 mi SSE 5.8 mph - N/A   Partly Cloudy
6:15 AM 51.8 °F 32.0 °F 47% 29.78 in 10.0 mi SE 6.9 mph - N/A   Clear
6:35 AM 53.6 °F 32.0 °F 44% 29.79 in 10.0 mi SSE 4.6 mph - N/A   Clear
6:55 AM 50.0 °F 32.0 °F 50% 29.79 in 10.0 mi SE 5.8 mph - N/A   Clear
7:15 AM 50.0 °F 32.0 °F 50% 29.79 in 10.0 mi SSE 5.8 mph - N/A   Clear
7:35 AM 48.2 °F 35.6 °F 62% 29.79 in 10.0 mi SE 4.6 mph - N/A   Clear
7:55 AM 53.6 °F 37.4 °F 54% 29.80 in 10.0 mi SSE 3.5 mph - N/A   Clear
8:15 AM 57.2 °F 35.6 °F 44% 29.81 in 10.0 mi South 5.8 mph - N/A   Clear
8:35 AM 60.8 °F 33.8 °F 36% 29.81 in 10.0 mi SSW 9.2 mph - N/A   Clear
8:55 AM 64.4 °F 32.0 °F 30% 29.82 in 10.0 mi SW 11.5 mph - N/A   Clear
9:15 AM 66.2 °F 32.0 °F 28% 29.82 in 7.0 mi SW 11.5 mph 19.6 mph N/A   Clear
9:35 AM 68.0 °F 32.0 °F 26% 29.81 in 10.0 mi SW 16.1 mph 19.6 mph N/A   Clear
9:55 AM 69.8 °F 30.2 °F 23% 29.81 in 10.0 mi SW 12.7 mph 19.6 mph N/A   Clear
10:15 AM 71.6 °F 30.2 °F 22% 29.81 in 10.0 mi WSW 10.4 mph 18.4 mph N/A   Clear
10:35 AM 71.6 °F 30.2 °F 22% 29.80 in 10.0 mi WSW 13.8 mph - N/A   Clear
10:55 AM 73.4 °F 28.4 °F 19% 29.80 in 10.0 mi SW 12.7 mph 17.3 mph N/A   Clear
11:15 AM 77.0 °F 26.6 °F 16% 29.79 in 10.0 mi SSW 12.7 mph 19.6 mph N/A   Clear
11:35 AM 77.0 °F 28.4 °F 17% 29.79 in 10.0 mi SSW 11.5 mph 18.4 mph N/A   Clear
11:55 AM 77.0 °F 26.6 °F 16% 29.78 in 10.0 mi WSW 11.5 mph 18.4 mph N/A   Clear
12:15 PM 77.0 °F 26.6 °F 16% 29.78 in 10.0 mi WSW 11.5 mph - N/A   Clear
12:55 PM 78.8 °F 24.8 °F 14% 29.76 in 10.0 mi SW 9.2 mph 18.4 mph N/A   Clear
1:15 PM 78.8 °F 24.8 °F 14% 29.75 in 10.0 mi WSW 10.4 mph - N/A   Clear
1:35 PM 80.6 °F 24.8 °F 13% 29.74 in 10.0 mi WSW 11.5 mph - N/A   Clear
1:55 PM 80.6 °F 24.8 °F 13% 29.72 in 10.0 mi SW 11.5 mph - N/A   Clear
2:15 PM 80.6 °F 24.8 °F 13% 29.71 in 10.0 mi WSW 9.2 mph - N/A   Clear
2:35 PM 80.6 °F 26.6 °F 14% 29.71 in 10.0 mi SW 10.4 mph - N/A   Clear
2:55 PM 80.6 °F 26.6 °F 14% 29.71 in 10.0 mi SW 11.5 mph - N/A   Clear
3:35 PM 82.4 °F 23.0 °F 11% 29.70 in 10.0 mi WSW 15.0 mph - N/A   Clear
3:55 PM 82.4 °F 19.4 °F 10% 29.69 in 10.0 mi WSW 12.7 mph 18.4 mph N/A   Clear
4:15 PM 82.4 °F 19.4 °F 10% 29.68 in 10.0 mi WSW 12.7 mph - N/A   Clear
4:35 PM 84.2 °F 17.6 °F 8% 29.67 in 10.0 mi SW 8.1 mph - N/A   Clear
4:55 PM 84.2 °F 15.8 °F 8% 29.67 in 10.0 mi SW 18.4 mph 24.2 mph N/A   Clear
5:15 PM 84.2 °F 12.2 °F 7% 29.67 in 10.0 mi SW 19.6 mph 25.3 mph N/A   Clear
5:35 PM 82.4 °F 10.4 °F 7% 29.67 in 10.0 mi SW 18.4 mph 27.6 mph N/A   Clear
5:55 PM 80.6 °F 10.4 °F 7% 29.67 in 10.0 mi WSW 11.5 mph - N/A   Clear
6:15 PM 78.8 °F 10.4 °F 7% 29.68 in 10.0 mi SW 11.5 mph - N/A   Clear
6:35 PM 77.0 °F 12.2 °F 9% 29.68 in 10.0 mi SW 9.2 mph - N/A   Clear
6:55 PM 75.2 °F 12.2 °F 9% 29.69 in 10.0 mi SW 9.2 mph - N/A   Clear
7:15 PM 75.2 °F 14.0 °F 10% 29.69 in 10.0 mi SW 10.4 mph 16.1 mph N/A   Clear
7:35 PM 75.2 °F 14.0 °F 10% 29.70 in 10.0 mi SW 12.7 mph - N/A   Partly Cloudy
7:55 PM 73.4 °F 14.0 °F 10% 29.70 in 10.0 mi SW 12.7 mph - N/A   Scattered Clouds
8:35 PM 73.4 °F 12.2 °F 10% 29.70 in 10.0 mi SW 11.5 mph - N/A   Clear
8:55 PM 71.6 °F 14.0 °F 11% 29.70 in 10.0 mi SW 6.9 mph - N/A   Partly Cloudy
9:15 PM 66.2 °F 15.8 °F 14% 29.71 in 10.0 mi SSW 4.6 mph - N/A   Scattered Clouds
9:35 PM 66.2 °F 15.8 °F 14% 29.71 in 10.0 mi South 4.6 mph - N/A   Scattered Clouds
9:55 PM 64.4 °F 15.8 °F 15% 29.71 in 10.0 mi SSW 9.2 mph - N/A   Mostly Cloudy
10:15 PM 66.2 °F 15.8 °F 14% 29.72 in 10.0 mi SW 5.8 mph - N/A   Mostly Cloudy
10:35 PM 66.2 °F 15.8 °F 14% 29.73 in 10.0 mi Calm Calm - N/A   Mostly Cloudy
10:55 PM 62.6 °F 15.8 °F 16% 29.74 in 10.0 mi NE 4.6 mph - N/A   Mostly Cloudy
11:15 PM 66.2 °F 17.6 °F 15% 29.76 in 10.0 mi Calm Calm - N/A   Overcast
11:35 PM 64.4 °F 17.6 °F 16% 29.79 in 10.0 mi North 11.5 mph - N/A   Mostly Cloudy
11:55 PM 66.2 °F 19.4 °F 17% 29.82 in 10.0 mi North 26.5 mph 36.8 mph N/A   Overcast